EHI
0 0 0 0 0 0 0 0 0 0 0 0 0 0 0 0 0 0 0 0 0 0 0 0 0 0 0 0 0 0 0 0 0 0 0 0 0 0 0 0 0 0 0
0 0 0 0 0 0 0 0 0 0 0 0 0 0 0 0 0 0 0 0 0 0 0 0 0 0 0 0 0 0 0 0 0 0 0 0 0 0 0 0 0 0 0
0 0 0 0 0 0 0 0 0 0 0 0 0 0 0 0 0 0 0 0 0 0 0 0 0 0 0 0 0 0 0 0 0 0 0 0 0 0 0 0 0 0 0
0 0 0 0 0 0 0 0 0 0 0 0 0 0 0 0 0 0 0 0 0 0 0 0 0 0 0 0 0 0 0 0 0 0 0 0 0 0 0 0 0 0 0
0 0 0 0 0 0 0 0 0 0 0 0 0 0 0 0 0 0 0 0 0 0 0 0 0 0 0 0 0 0 0 0 0 0 0 0 0 0 0 0 0 0 0
0 0 0 0 0 0 0 0 0 0 0 0 0 0 0 0 0 0 0 0 0 0 0 0 0 0 0 0 0 0 0 0 0 0 0 0 0 0 0 0 0 0 0
0 0 0 0 0 0 0 0 0 0 0 0 0 0 0 0 0 0 0 0 0 0 0 0 0 0 0 0 0 0 0 0 0 0 0 0 0 0 0 0 0 0 0
0 0 0 0 0 0 0 0 0 0 0 0 0 0 0 0 0 0 0 0 0 0 0 0 0 0 0 0 0 0 0 0 0 0 0 0 0 0 0 0 0 0 0
0 0 0 0 0 0 0 0 0 0 0 0 0 0 0 0 0 0 0 0 0 0 0 0 0 0 0 0 0 0 0 0 0 0 0 0 0 0 0 0 0 0 0
0 0 0 0 0 0 0 0 0 0 0 0 0 0 0 0 0 0 0 0 0 0 0 0 0 0 0 0 0 0 0 0 0 0 0 0 0 0 0 0 0 0 0
0 0 0 0 0 0 0 0 0 0 0 0 0 0 0 0 0 0 0 0 0 0 0 0 0 0 0 0 0 0 0 0 0 0 0 0 0 0 0 0 0 0 0
0 0 0 0 0 0 0 0 0 0 0 0 0 0 0 0 0 0 0 0 0 0 0 0 0 0 0 0 0 0 0 0 0 0 0 0 0 0 0 0 0 0 0
0 0 0 0 0 0 0 0 0 0 0 0 0 0 0 0 0 0 0 0 0 0 0 0 0 0 0 0 0 0 0 0 0 0 0 0 0 0 0 0 0 0 0
0 0 0 0 0 0 0 0 0 0 0 0 0 0 0 0 0 0 0 0 0 0 0 0 0 0 0 0 0 0 0 0 0 0 0 0 0 0 0 0 0 0 0
0 0 0 0 0 0 0 0 0 0 0 0 0 0 0 0 0 0 0 0 0 0 0 0 0 0 0 0 0 0 0 0 0 0 0 0 0 0 0 0 0 0 0
0 0 0 0 0 0 0 0 0 0 0 0 0 0 0 0 0 0 0 0 0 0 0 0 0 0 0 0 0 0 0 0 0 0 0 0 0 0 0 0 0 0 0
0 0 0 0 0 0 0 0 0 0 0 0 0 0 0 0 0 0 0 0 0 0 0 0 0 0 0 0 0 0 0 0 0 0 0 0 0 0 0 0 0 0 0
0 0 0 0 0 0 0 0 0 0 0 0 0 0 0 0 0 0 0 0 0 0 0 0 0 0 0 0 0 0 0 0 0 0 0 0 0 0 0 0 0 0 0
0 0 0 0 0 0 0 0 0 0 0 0 0 0 0 0 0 0 0 0 0 0 0 0 0 0 0 0 0 0 0 0 0 0 0 0 0 0 0 0 0 0 0
0 0 0 0 0 0 0 0 0 0 0 0 0 0 0 0 0 0 0 0 0 0 0 0 0 0 0 0 0 0 0 0 0 0 0 0 0 0 0 0 0 0 0
0 0 0 0 0 0 0 0 0 0 0 0 0 0 0 0 0 0 0 0 0 0 0 0 0 0 0 0 0 0 0 0 0 0 0 0 0 0 0 0 0 0 0
0 0 0 0 0 0 0 0 0 0 0 0 0 0 0 0 0 0 0 0 0 0 0 0 0 0 0 0 0 0 0 0 0 0 0 0 0 0 0 0 0 0 0
0 0 0 0 0 0 0 0 0 0 0 0 0 0 0 0 0 0 0 0 0 0 0 0 0 0 0 0 0 0 0 0 0 0 0 0 0 0 0 0 0 0 0
0 0 0 0 0 0 0 0 0 0 0 0 0 0 0 0 0 0 0 0 0 0 0 0 0 0 0 0 0 0 0 0 0 0 0 0 0 0 0 0 0 0 0
0 0 0 0 0 0 0 0 0 0 0 0 0 0 0 0 0 0 0 0 0 0 0 0 0 0 0 0 0 0 0 0 0 0 0 0 0 0 0 0 0 0 0
0 0 0 0 0 0 0 0 0 0 0 0 0 0 0 0 0 0 0 0 0 0 0 0 0 0 0 0 0 0 0 0 0 0 0 0 0 0 0 0 0 0 0
Wind_Speed
3 3 3 3 3 3 3 3 4 5 5 5 5 6 6 6 6 5 5 14 17 18 19 20 20 20 20 20 19 19 18 18 17 17 16 15 15 14 13 12 11 10 9
3 3 3 3 3 3 3 3 4 4 4 4 5 6 6 6 6 7 6 10 18 20 21 22 23 23 23 22 22 22 21 21 20 20 19 19 18 17 16 15 14 14 13
3 3 3 3 3 3 4 3 4 4 4 4 5 6 6 7 7 8 7 6 8 17 23 24 25 25 25 25 25 24 24 23 23 23 22 22 21 20 19 18 17 17 16
4 3 3 3 4 3 3 3 3 3 4 4 5 5 6 6 8 9 8 8 7 8 15 24 25 26 27 27 27 27 26 26 25 25 25 24 24 23 22 21 20 19 18
4 3 3 3 3 3 3 4 4 4 5 5 5 6 6 6 7 8 9 10 9 9 8 16 25 26 27 28 29 29 28 28 28 28 27 27 26 26 25 24 23 22 21
3 3 3 4 4 3 4 4 5 5 5 5 7 8 7 7 7 9 11 10 9 11 10 11 11 15 26 28 29 30 30 30 30 30 29 29 29 28 28 27 26 25 24
3 3 3 3 4 4 5 5 5 6 5 4 5 6 7 9 12 11 11 10 10 10 10 10 9 8 10 23 27 29 30 31 31 31 31 31 31 30 30 29 28 28 27
3 2 3 3 4 4 5 5 5 4 4 3 3 4 6 5 6 10 8 9 10 8 9 11 10 10 8 7 15 26 27 30 31 32 32 32 32 32 32 31 30 30 29
3 3 3 3 4 4 4 5 5 6 5 4 4 5 4 6 5 4 5 5 6 6 7 7 9 10 10 9 9 19 27 29 30 31 32 32 33 33 33 33 32 32 31
3 3 3 4 4 4 5 6 6 5 5 5 4 5 7 6 5 6 4 4 5 5 6 7 8 9 9 8 12 20 26 28 29 30 31 31 32 33 34 34 33 33 32
2 3 4 4 4 4 5 6 6 6 5 6 5 5 6 6 7 9 10 6 6 6 7 8 7 7 9 9 8 15 25 27 29 29 30 30 31 32 33 33 34 34 33
2 3 3 3 4 4 6 6 6 7 7 7 6 6 6 6 6 7 11 9 8 6 7 6 6 7 7 8 11 19 24 27 28 28 29 29 29 30 32 32 33 33 34
3 4 3 3 4 5 6 6 6 7 7 8 8 7 7 8 7 7 10 12 12 8 7 6 6 7 8 7 9 19 22 26 27 27 28 28 28 29 30 31 32 33 33
3 4 4 5 6 6 7 6 6 7 7 8 9 9 7 7 7 7 8 10 14 12 8 9 6 7 7 7 10 16 13 24 25 25 26 26 27 28 29 30 30 31 32
4 5 5 6 7 7 7 7 6 7 7 7 8 8 8 7 6 7 7 7 10 17 15 8 5 5 6 6 11 9 8 18 24 25 25 25 26 27 28 28 29 29 30
5 5 6 7 7 7 7 7 7 7 8 8 6 8 8 7 6 6 6 7 7 12 18 9 6 6 7 9 16 12 9 21 24 25 25 26 26 27 27 28 28 29 29
5 6 7 7 7 8 7 7 8 8 8 8 8 8 9 8 7 6 6 6 7 8 16 14 7 6 8 9 10 9 8 9 10 23 26 26 26 27 27 27 27 28 29
6 7 7 7 8 8 8 8 9 8 8 9 9 9 10 9 10 8 7 8 8 8 12 18 11 7 9 9 9 10 10 10 8 19 26 27 27 27 26 26 26 26 27
7 7 7 8 8 8 8 8 8 8 8 9 9 10 10 11 12 9 10 10 9 10 10 14 15 8 7 8 9 10 11 9 11 15 22 24 26 26 26 26 26 26 26
7 8 8 8 9 9 9 9 9 9 9 9 10 10 11 12 13 13 12 12 11 11 11 13 13 11 9 7 7 8 10 8 9 10 14 17 21 25 25 25 25 25 24
8 8 9 9 9 8 8 9 8 9 9 10 10 11 12 17 22 18 14 11 11 11 11 11 12 11 10 7 8 7 10 8 8 8 8 9 9 8 10 17 22 23 24
8 8 9 9 9 9 16 22 17 9 9 9 10 11 12 15 19 24 26 25 21 14 11 11 11 12 11 9 8 8 9 9 9 5 7 9 7 7 7 7 16 22 23
8 8 8 9 9 11 20 23 23 14 9 9 10 10 12 13 19 12 18 23 22 25 24 16 14 13 12 10 10 11 10 11 11 5 5 8 6 7 6 10 20 21 22
7 8 8 9 9 12 22 24 24 14 9 9 10 11 12 12 13 16 13 12 12 13 16 13 11 12 12 11 11 12 12 11 10 7 7 8 6 7 7 7 17 21 21
8 8 8 9 10 12 20 23 23 9 8 9 10 11 12 12 20 26 16 13 13 12 17 22 23 21 23 24 18 9 8 8 9 7 6 6 6 5 5 6 10 19 20
8 8 9 9 10 11 18 23 23 8 8 8 8 9 17 19 23 26 15 11 14 12 11 12 14 16 14 14 19 10 7 8 7 6 5 6 5 4 4 4 5 6 9
Wind_Direction
185 206 203 202 209 209 204 209 222 239 243 240 233 230 234 236 235 229 236 247 250 251 254 255 255 255 255 254 253 250 248 246 245 245 245 246 246 246 246 246 246 248 249
193 205 214 218 221 223 226 223 231 241 244 240 242 241 240 239 239 237 231 243 248 249 251 255 256 255 254 254 254 252 249 247 245 244 243 243 243 243 243 244 244 244 245
211 214 219 229 228 228 231 234 246 256 260 258 254 251 248 245 243 241 239 232 239 247 249 252 254 255 254 254 254 253 251 249 247 245 243 242 241 241 241 241 241 242 242
213 221 227 234 237 238 237 236 237 251 258 257 255 252 249 245 244 242 241 238 232 236 246 250 252 253 254 254 253 253 252 251 249 246 245 243 241 240 240 239 239 239 240
225 225 232 239 248 250 246 244 241 237 254 261 263 260 254 250 250 249 245 241 236 234 232 247 252 254 256 257 257 255 253 252 250 249 246 244 243 241 239 238 238 238 238
246 239 239 247 256 259 256 249 251 249 247 254 268 270 263 259 255 252 251 247 241 238 235 237 244 253 256 258 259 260 258 256 253 251 249 246 244 243 241 239 238 237 237
263 252 246 248 248 251 253 251 254 260 262 260 276 282 269 253 251 250 247 246 244 241 236 236 235 235 249 256 260 262 261 260 258 254 252 249 247 245 243 241 239 237 236
271 262 255 253 250 251 258 259 255 259 262 246 248 296 304 300 260 249 245 241 242 238 237 238 236 235 235 237 249 258 263 264 263 260 257 253 250 247 245 243 240 238 237
262 258 261 262 265 258 257 257 252 250 258 255 217 220 259 271 306 291 277 263 251 242 241 241 240 238 237 233 239 252 257 262 265 265 262 259 255 251 248 245 243 240 238
252 249 254 261 264 262 262 261 256 249 249 257 254 234 234 239 271 294 279 281 291 277 265 256 250 244 239 236 237 243 253 258 262 265 266 264 261 257 252 248 245 242 240
269 254 245 248 256 258 261 263 265 258 248 247 245 248 256 257 247 262 278 270 265 259 261 258 254 249 244 238 234 241 252 258 262 264 266 267 266 264 260 254 249 245 242
294 283 272 259 258 259 259 260 258 257 253 253 251 245 244 246 248 254 269 274 271 264 262 265 265 260 254 249 244 248 251 256 261 264 265 266 267 267 266 263 257 252 247
298 294 300 291 282 274 270 266 263 260 257 256 254 254 251 251 249 254 268 278 279 276 267 264 263 267 267 258 253 252 252 257 260 263 265 266 266 266 266 265 263 259 254
287 296 301 292 285 282 280 275 270 264 262 257 258 257 256 255 252 251 259 276 284 283 265 259 258 262 271 271 266 259 257 261 263 264 265 266 266 266 264 263 262 261 259
291 297 296 291 286 283 280 278 272 269 267 262 261 260 259 258 254 254 253 251 271 285 283 267 258 260 274 281 281 276 261 264 268 268 268 268 267 266 264 262 260 259 258
297 297 294 290 288 286 284 281 279 275 274 271 267 267 267 266 261 258 256 256 254 269 281 277 258 252 264 274 281 281 271 274 273 272 272 271 270 268 266 263 260 258 256
299 295 292 292 291 289 287 285 282 283 282 282 282 281 280 280 278 272 267 265 263 263 277 283 268 261 259 263 272 272 272 267 266 270 272 272 271 269 267 264 261 259 256
295 293 292 291 290 290 289 288 289 290 289 290 289 288 288 290 285 280 274 269 267 263 271 282 282 270 262 261 262 264 269 268 258 267 269 270 271 269 267 265 263 261 258
291 290 290 288 288 288 287 284 282 283 283 284 286 287 287 288 285 281 277 274 272 272 268 276 282 276 269 264 265 265 264 265 264 267 268 269 269 268 265 263 262 260 258
288 288 286 284 283 283 282 280 277 276 276 276 277 279 280 279 280 280 278 273 272 271 269 271 276 277 272 260 258 264 267 257 260 263 265 265 265 266 265 263 262 260 257
286 284 284 282 280 281 280 280 276 275 277 279 279 278 278 281 282 283 280 273 267 267 270 271 275 277 273 266 261 260 267 267 260 252 256 257 258 256 257 261 262 261 259
283 284 283 283 284 287 295 298 298 287 280 281 283 283 284 286 287 288 290 290 286 281 278 274 277 276 276 269 266 263 266 269 270 233 242 253 243 246 243 239 253 257 258
284 284 284 285 284 288 298 301 300 297 285 281 282 285 288 286 292 286 287 289 288 286 284 280 277 276 278 271 267 266 261 261 263 249 247 261 246 249 243 248 253 254 254
282 283 285 285 287 292 300 301 301 297 284 280 279 280 281 283 284 288 280 277 273 275 276 275 267 267 267 265 256 259 262 262 261 251 237 258 249 245 246 240 250 252 253
282 281 283 285 287 291 297 300 301 290 283 280 279 281 286 285 288 294 293 285 282 278 281 279 276 275 275 275 270 263 253 257 263 252 220 238 247 244 241 239 244 248 251
278 281 284 284 285 286 294 300 302 291 286 284 282 280 288 292 294 297 293 286 286 285 280 279 279 280 279 276 277 267 258 261 266 261 217 217 229 221 247 239 230 236 245